Regional Weather Roundup
Issued by NWS

Home | Current Version | Previous Version | Graphics & Text | Print | Product List | Glossary On
Versions: 1 2 3 4 5 6 7 8 9 10 11 12 13 14 15 16 17 18 19 20 21 22 23 24 25 26 27 28 29 30 31 32 33 34 35 36 37 38 39 40 41 42 43 44 45 46 47 48 49 50
000
ASUS45 KSLC 051810
RWRUT

UTAH REGIONAL WEATHER ROUNDUP
NATIONAL WEATHER SERVICE SALT LAKE CITY UT
1200 PM MDT TUE MAY 05 2015

UTZ001>011-023>025-051900-

NORTHERN UTAH

CITY           SKY/WX    TMP DP  RH WIND       PRES   REMARKS
HILL AFB       PTSUNNY   63  48  56 VRB1      29.86F
LOGAN          SUNNY     67  46  47 VRB3      29.84F
OGDEN          CLOUDY    65  44  46 CALM      29.84F
PROVO AIRPORT  PTSUNNY   66  45  45 S5        29.85F
SALT LAKE CITY CLOUDY    63  45  51 W15       29.85S
VERNAL         PTSUNNY   66  40  38 VRB5      29.83F
WENDOVER       MOSUNNY   68  39  34 E8        29.85F
HEBER CITY     CLOUDY    59  45  58 SE3       29.88F
WEST JORDAN    CLOUDY    64  50  59 CALM      29.86F

$$

UTZ012>022-026-027-051900-

SOUTHERN/CENTRAL UTAH

CITY           SKY/WX    TMP DP  RH WIND       PRES   REMARKS
BLANDING       CLOUDY    50  48  93 SW5       30.00S
BRYCE CANYON   CLOUDY    53  37  54 NW5       29.98S
CEDAR CITY     CLOUDY    54  45  71 SW3       29.94F
DELTA          PTSUNNY   63  44  50 SW7       29.88F
HANKSVILLE     CLOUDY    59  50  72 NW3       29.88F
MILFORD        PTSUNNY   61  49  64 S16       29.90F
MOAB/CYNLANDS  CLOUDY    59  50  72 W7        29.84F
PRICE          CLOUDY    57  45  64 VRB3      29.89F
ST GEORGE      CLOUDY    64  50  59 W7        29.91F
KANAB          CLOUDY    57  45  62 SW8       29.96F

$$

REGIONAL REPORTS     COLORADO/ARIZONA

CITY           SKY/WX    TMP DP  RH WIND       PRES   REMARKS
CRAIG, CO      MOSUNNY   61  38  42 CALM      29.87F
GRAND JUNCTION CLOUDY    61  45  55 NW9       29.83F
RIFLE          CLOUDY    64  39  39 W6        29.82F
MONTROSE       CLOUDY    56  46  69 N6        29.89F
CORTEZ         LGT RAIN  50  47  89 W3        29.95S
PAGE, AZ       PTSUNNY   67  47  48 CALM      29.88F
GRAND CANYON   CLOUDY    50  44  80 NW8       30.01S
KINGMAN        SUNNY     69  47  45 W12       29.94S
FLAGSTAFF      LGT RAIN  47  44  90 SW12      30.03S

$$

REGIONAL REPORTS    NEVADA/IDAHO/WYOMING

CITY           SKY/WX    TMP DP  RH WIND       PRES   REMARKS
LAS VEGAS, NV  MOSUNNY   76  39  26 S9        29.82S
ELY            MOSUNNY   64  34  32 MISG      29.93F
ELKO           CLOUDY    66  36  32 SW9       29.89F
POCATELLO, ID  MOSUNNY   69  41  36 W8        29.84F
BURLEY         MOSUNNY   66  43  43 W15G23    29.83F
EVANSTON, WY   PTSUNNY   56  39  53 CALM      29.93F
ROCK SPRINGS   MOSUNNY   60  37  42 N5        29.91F
KEMMERER       MOSUNNY   55  37  50 CALM      29.95F

$$


USA.gov is the U.S. government's official web portal to all federal, state and local government web resources and services.